Temp
62 62 61 61 61 61 61 61 60 60 61 61 61 61 61 60 61 61 61 61 62 62 62 63 63 63 64 63 68 79 71 72 75 75 73 71 68 68 63 67 68 63 68 69 70 67 67
62 61 61 60 60 60 60 60 60 60 61 61 61 60 60 60 60 60 60 61 61 61 61 62 63 63 64 60 77 79 77 74 74 74 73 73 71 73 68 67 65 69 69 68 69 68 68
61 60 60 60 60 60 60 60 60 60 60 60 60 60 59 59 59 59 60 61 61 61 60 62 63 67 65 67 77 79 76 75 76 76 71 75 75 70 71 64 69 68 61 66 67 67 65
60 60 60 60 60 60 60 60 60 60 60 60 60 59 59 59 59 59 59 61 61 61 61 62 63 68 63 72 79 75 76 73 77 76 75 76 74 71 68 70 65 61 63 58 65 63 64
60 60 60 60 60 60 60 60 59 59 59 59 59 59 58 58 58 58 58 61 61 61 62 63 64 65 63 68 68 76 77 70 73 73 73 74 71 66 65 60 58 60 57 59 57 65 62
60 59 59 59 59 59 59 59 59 59 59 59 58 58 58 58 58 58 58 61 61 62 65 69 70 59 66 64 68 72 75 74 69 68 65 66 64 59 60 58 51 56 56 60 59 60 63
59 59 59 59 58 58 59 59 58 58 58 58 58 57 57 57 57 58 60 64 61 59 63 62 64 63 65 68 72 68 72 69 69 66 57 61 54 51 58 61 64 61 60 59 62 62 62
59 59 59 58 57 58 58 58 58 58 58 58 57 57 57 57 57 57 59 62 67 66 59 65 63 64 67 70 60 64 72 63 61 55 61 54 50 61 64 63 60 58 56 57 62 62 59
58 59 58 58 57 57 57 57 57 58 57 57 57 56 56 57 57 56 61 65 69 69 60 58 63 63 64 66 61 60 66 65 59 56 55 54 57 59 58 56 54 56 55 57 56 56 59
58 57 57 57 57 56 56 57 57 57 57 56 56 56 56 56 52 63 58 69 69 68 55 54 56 61 63 66 56 65 69 64 58 55 56 56 61 56 54 54 57 51 61 58 56 52 48
57 57 56 56 56 56 56 56 56 56 56 56 55 56 56 55 58 58 62 66 68 65 38 56 56 68 64 60 58 57 65 62 55 54 55 53 52 51 51 55 60 54 57 56 55 52 53
56 56 56 55 55 56 55 56 56 56 55 55 55 55 56 56 59 61 62 65 63 49 36 48 56 54 55 58 55 58 60 64 61 55 55 55 57 56 56 56 57 57 55 54 53 52 39
56 56 55 55 55 55 55 55 55 55 55 55 55 55 55 62 59 62 63 58 47 42 54 47 49 53 55 51 51 55 52 51 50 44 45 52 52 54 56 52 54 53 50 41 38 37 38
56 55 55 55 55 55 54 54 55 55 54 55 55 55 56 61 61 62 60 52 40 50 49 50 51 53 48 50 48 49 49 46 48 48 49 44 38 49 52 52 50 49 51 44 35 38 44
55 55 55 54 54 54 54 54 54 54 54 54 55 62 60 59 59 60 55 44 45 46 46 47 49 46 45 47 48 48 49 48 46 46 44 45 43 49 49 51 51 49 43 52 44 49 41
54 54 54 54 54 54 53 53 54 54 54 54 62 62 58 59 58 57 50 44 42 43 44 45 45 46 45 46 46 47 44 44 42 45 49 46 40 46 47 51 51 48 51 41 44 33 33
54 54 53 54 53 53 53 53 53 53 54 54 60 57 58 61 59 54 44 43 41 44 45 43 44 42 46 43 48 46 44 39 43 43 48 44 42 41 46 38 39 45 44 44 43 42 36
53 52 53 53 53 52 52 52 53 53 53 54 58 51 59 61 47 48 43 42 42 40 45 42 43 43 43 42 40 39 37 37 42 42 39 40 39 38 36 39 42 39 36 38 36 37 38
53 53 53 53 52 52 52 52 52 52 52 55 55 55 60 58 44 40 40 36 38 39 36 39 37 41 41 36 34 37 35 37 41 39 35 39 36 30 31 35 38 32 30 33 34 32 30
53 53 53 52 52 52 51 51 52 51 52 53 54 47 51 50 50 46 39 37 33 39 36 38 37 40 38 35 39 32 31 34 38 38 39 41 33 28 28 27 32 27 27 29 28 25 27
53 52 52 52 52 52 51 51 51 51 51 53 49 42 42 45 43 45 44 39 34 32 37 39 36 35 36 32 33 30 32 33 36 37 37 36 26 28 29 31 29 25 24 24 24 18 20
51 51 52 51 51 51 51 51 51 50 51 49 47 46 46 41 40 43 39 36 35 31 35 33 34 34 37 31 33 29 32 34 32 35 34 35 25 27 23 27 28 20 20 21 21 16 13
51 50 51 51 51 51 50 50 50 50 51 47 46 48 47 38 39 40 35 36 34 35 35 39 37 34 30 31 36 37 38 37 35 33 31 31 26 23 21 25 24 17 13 18 17 16 14
50 50 50 51 50 50 50 50 50 50 48 47 42 43 47 35 38 35 35 36 34 34 31 35 38 34 33 41 41 39 37 35 34 33 36 30 27 26 18 22 11 9 15 14 13 11 12
50 50 50 50 50 50 50 50 50 50 50 45 44 42 44 35 37 35 34 33 35 36 34 33 34 39 41 38 32 27 27 28 25 29 30 33 29 18 17 18 10 8 10 9 8 9 8
49 49 49 49 49 49 49 49 49 49 49 47 44 43 45 38 33 38 35 37 33 32 32 31 37 41 39 36 31 21 21 25 20 21 30 30 31 25 19 15 12 11 12 12 10 10 8
49 49 48 48 49 49 49 48 49 49 49 47 44 44 44 35 35 37 35 34 37 35 32 33 33 34 38 32 27 23 21 26 20 19 18 22 22 19 20 17 8 10 11 11 7 7 8
49 49 48 48 49 48 49 48 48 48 48 46 44 45 41 35 31 35 34 34 34 36 31 33 32 32 32 28 27 25 24 21 16 13 11 16 16 18 15 14 10 12 8 7 6 7 7
49 49 48 48 48 48 48 48 48 48 48 48 41 46 45 35 29 36 35 36 33 33 36 34 33 33 33 31 29 26 19 21 16 13 16 12 8 14 10 10 11 10 8 7 6 4 8
MSLP
1017.40 1017.23 1016.97 1016.69 1016.30 1015.93 1015.38 1015.02 1014.62 1014.19 1013.92 1013.49 1013.10 1012.74 1012.50 1012.28 1011.88 1011.41 1011.10 1010.81 1010.71 1010.74 1011.01 1011.07 1011.02 1011.21 1011.42 1010.11 1007.91 1007.52 1007.75 1008.45 1009.11 1009.30 1009.18 1008.96 1009.05 1009.09 1008.61 1008.37 1008.45 1008.75 1008.42 1008.76 1009.15 1009.64 1009.99
1017.49 1017.20 1016.98 1016.66 1016.35 1015.97 1015.46 1015.02 1014.63 1014.18 1013.82 1013.53 1013.14 1012.78 1012.48 1012.11 1011.61 1011.21 1010.79 1010.50 1010.47 1010.62 1010.89 1010.94 1010.93 1011.18 1010.79 1008.91 1007.78 1007.66 1007.86 1008.45 1008.77 1009.16 1008.92 1008.96 1008.81 1008.74 1008.41 1008.15 1008.33 1008.07 1008.36 1008.59 1008.93 1009.44 1010.17
1017.63 1017.28 1016.92 1016.60 1016.28 1015.85 1015.48 1014.98 1014.57 1014.19 1013.72 1013.48 1013.10 1012.70 1012.22 1011.78 1011.36 1010.94 1010.55 1010.35 1010.30 1010.41 1010.69 1010.81 1010.93 1010.78 1009.79 1008.29 1008.07 1007.98 1008.31 1008.43 1008.80 1008.86 1008.79 1008.92 1009.03 1008.92 1008.39 1008.30 1008.44 1008.44 1008.56 1008.39 1008.58 1009.28 1010.18
1017.76 1017.33 1016.93 1016.62 1016.22 1015.77 1015.37 1014.94 1014.54 1014.10 1013.65 1013.29 1012.94 1012.47 1011.99 1011.59 1011.26 1010.80 1010.34 1010.00 1010.03 1010.31 1010.68 1010.80 1010.97 1010.52 1008.74 1008.51 1008.15 1008.29 1008.42 1008.70 1009.14 1009.31 1009.14 1009.31 1009.63 1009.19 1008.77 1008.67 1008.62 1008.36 1008.20 1007.57 1008.10 1009.26 1010.31
1017.81 1017.35 1016.82 1016.41 1016.10 1015.69 1015.22 1014.80 1014.39 1013.98 1013.51 1013.07 1012.74 1012.32 1011.93 1011.50 1011.13 1010.74 1010.30 1010.01 1010.09 1010.34 1010.60 1010.81 1010.82 1010.03 1008.28 1008.82 1008.39 1008.07 1008.21 1008.49 1009.05 1009.34 1009.57 1009.69 1009.75 1009.16 1009.19 1008.60 1007.95 1007.60 1006.41 1006.82 1008.11 1008.97 1010.09
1017.88 1017.36 1016.87 1016.54 1016.10 1015.64 1015.16 1014.66 1014.23 1013.81 1013.34 1012.88 1012.53 1012.19 1011.86 1011.46 1011.09 1010.81 1010.47 1010.18 1010.23 1010.31 1010.52 1010.25 1009.78 1009.79 1008.31 1007.77 1008.09 1008.32 1008.52 1008.53 1008.76 1009.27 1009.68 1009.64 1009.41 1009.09 1008.74 1008.06 1006.53 1006.03 1006.52 1006.55 1006.97 1009.00 1009.95
1017.84 1017.38 1016.90 1016.49 1016.18 1015.58 1015.08 1014.52 1014.05 1013.64 1013.14 1012.67 1012.33 1012.04 1011.70 1011.33 1011.04 1010.85 1010.65 1010.11 1010.27 1009.90 1009.39 1008.01 1007.75 1007.53 1007.51 1008.14 1008.26 1008.38 1008.47 1008.67 1008.69 1008.95 1008.82 1009.22 1009.17 1008.28 1007.82 1007.52 1006.69 1006.56 1006.18 1006.30 1007.19 1008.87 1009.95
1017.98 1017.43 1016.99 1016.53 1016.21 1015.56 1015.13 1014.49 1013.84 1013.38 1012.90 1012.41 1012.06 1011.76 1011.44 1011.12 1010.93 1010.87 1010.66 1008.87 1007.63 1007.96 1007.67 1007.81 1007.84 1007.74 1007.74 1007.60 1007.93 1008.41 1008.46 1008.30 1008.46 1008.39 1008.46 1009.36 1008.47 1008.01 1007.65 1007.36 1007.33 1007.38 1006.99 1006.84 1007.29 1008.78 1010.38
1018.05 1017.61 1017.12 1016.58 1016.18 1015.70 1015.09 1014.46 1013.73 1013.10 1012.59 1012.14 1011.72 1011.37 1011.12 1010.84 1010.76 1010.66 1009.45 1008.16 1008.11 1007.85 1007.13 1007.52 1007.42 1007.21 1007.40 1007.71 1007.44 1008.04 1008.41 1008.02 1008.09 1008.18 1008.53 1008.03 1008.02 1008.11 1008.09 1008.07 1007.90 1007.58 1007.23 1007.02 1007.67 1009.14 1010.25
1018.32 1017.87 1017.30 1016.79 1016.18 1015.64 1014.99 1014.27 1013.58 1012.88 1012.29 1011.72 1011.33 1010.97 1010.77 1010.61 1010.84 1008.93 1008.77 1007.96 1008.14 1008.11 1006.95 1006.92 1007.05 1006.80 1007.29 1007.27 1007.96 1008.42 1008.25 1008.24 1008.43 1008.14 1008.49 1008.34 1008.07 1008.48 1008.50 1008.09 1008.03 1007.53 1007.41 1007.78 1008.15 1009.09 1009.18
1018.56 1018.02 1017.46 1016.96 1016.43 1015.59 1014.88 1014.09 1013.32 1012.58 1011.83 1011.25 1010.86 1010.51 1010.39 1010.46 1009.39 1008.60 1008.40 1008.08 1008.17 1008.07 1006.72 1006.43 1006.79 1007.00 1007.02 1007.24 1007.95 1008.75 1008.93 1008.64 1008.17 1008.34 1008.73 1008.23 1008.67 1008.83 1008.58 1008.09 1008.10 1007.99 1008.25 1008.19 1008.54 1008.94 1009.27
1018.83 1018.22 1017.73 1017.16 1016.47 1015.61 1014.84 1014.14 1013.27 1012.34 1011.48 1010.84 1010.38 1010.15 1010.05 1009.90 1009.42 1008.73 1008.59 1008.34 1008.36 1007.81 1006.09 1006.31 1006.62 1006.80 1007.04 1007.46 1008.08 1008.63 1008.78 1008.90 1008.93 1008.83 1008.98 1008.70 1009.27 1009.12 1008.67 1009.01 1008.79 1009.02 1008.83 1008.94 1009.09 1009.14 1009.51
1019.08 1018.44 1017.93 1017.20 1016.52 1015.57 1014.81 1013.99 1013.12 1012.12 1011.20 1010.36 1009.87 1009.67 1009.72 1009.04 1008.52 1008.83 1008.68 1008.51 1008.04 1006.29 1005.86 1006.37 1006.35 1006.73 1006.83 1007.64 1008.33 1008.38 1008.72 1009.13 1009.07 1009.37 1009.09 1009.09 1009.32 1009.71 1009.68 1009.42 1009.69 1009.48 1008.99 1008.70 1009.05 1009.30 1008.84
1019.27 1018.62 1018.02 1017.24 1016.45 1015.61 1014.74 1013.76 1012.71 1011.61 1010.70 1010.00 1009.50 1009.36 1009.28 1009.20 1009.09 1008.91 1008.65 1008.16 1007.04 1005.75 1006.14 1006.93 1006.81 1006.96 1007.34 1008.05 1008.72 1009.10 1009.28 1009.77 1010.39 1010.08 1009.02 1009.14 1009.81 1010.00 1010.29 1009.76 1009.42 1009.49 1008.93 1008.04 1007.63 1007.97 1008.88
1019.35 1018.80 1018.12 1017.40 1016.61 1015.74 1014.84 1013.78 1012.66 1011.62 1010.64 1009.91 1009.50 1008.96 1009.03 1009.09 1009.22 1008.97 1008.45 1007.77 1007.17 1007.57 1007.94 1007.63 1007.68 1007.48 1007.95 1008.55 1008.79 1009.38 1009.60 1010.10 1011.29 1011.32 1010.57 1009.88 1010.17 1011.00 1011.18 1011.01 1010.77 1010.01 1009.82 1009.42 1009.04 1009.03 1010.40
1019.67 1019.08 1018.22 1017.53 1016.77 1015.89 1014.93 1013.85 1012.65 1011.52 1010.50 1009.88 1008.81 1008.44 1008.84 1009.10 1009.17 1008.94 1008.60 1008.26 1009.25 1009.88 1009.65 1008.94 1007.71 1007.91 1007.72 1008.55 1009.15 1009.63 1010.80 1012.33 1012.59 1012.74 1012.28 1011.40 1011.30 1011.74 1011.98 1011.94 1011.71 1011.32 1011.18 1010.66 1010.49 1010.17 1011.08
1019.92 1019.30 1018.58 1017.72 1016.90 1016.02 1015.02 1013.92 1012.62 1011.37 1010.34 1009.65 1008.84 1008.13 1009.04 1009.11 1009.22 1008.86 1008.74 1009.68 1010.68 1011.13 1010.96 1010.34 1009.19 1009.09 1008.69 1009.43 1009.53 1010.54 1011.76 1013.96 1014.08 1013.78 1013.26 1012.98 1012.50 1012.99 1012.92 1013.81 1013.61 1012.82 1012.44 1012.26 1012.12 1011.92 1012.79
1020.37 1019.73 1018.95 1017.96 1017.14 1016.18 1015.22 1014.11 1012.78 1011.46 1010.27 1009.66 1008.82 1008.20 1009.11 1009.14 1009.22 1009.32 1009.79 1011.05 1011.91 1012.12 1011.93 1011.57 1011.10 1010.78 1010.50 1011.16 1011.55 1012.52 1013.62 1014.95 1015.62 1015.26 1014.61 1014.82 1014.23 1013.89 1015.14 1016.32 1016.40 1016.23 1015.95 1015.48 1014.80 1014.43 1015.74
1020.64 1019.87 1019.09 1018.32 1017.38 1016.44 1015.44 1014.31 1013.07 1011.71 1010.86 1009.95 1008.74 1008.60 1009.11 1009.01 1008.67 1009.91 1011.40 1012.24 1012.89 1012.82 1013.10 1012.79 1012.68 1012.39 1012.48 1012.84 1013.37 1014.26 1015.53 1016.92 1016.67 1016.41 1016.44 1016.11 1015.82 1016.04 1016.79 1017.59 1017.84 1018.20 1018.92 1018.69 1018.43 1018.65 1019.09
1020.85 1020.10 1019.44 1018.67 1017.75 1016.83 1015.82 1014.58 1013.44 1012.15 1011.21 1010.58 1009.58 1008.90 1009.31 1009.56 1009.82 1009.66 1011.05 1012.31 1013.36 1013.94 1014.10 1013.97 1013.88 1013.69 1013.66 1014.14 1014.40 1015.48 1016.69 1017.82 1017.85 1017.70 1017.67 1017.25 1017.35 1017.70 1018.01 1018.82 1019.49 1020.40 1021.18 1021.42 1021.40 1021.98 1022.69
1021.21 1020.60 1019.93 1019.20 1018.33 1017.35 1016.29 1015.30 1013.98 1012.65 1011.50 1011.02 1010.41 1010.67 1011.10 1010.02 1010.42 1010.62 1011.24 1012.47 1013.41 1014.23 1014.66 1014.61 1014.64 1014.60 1014.52 1015.04 1015.60 1016.48 1017.52 1018.33 1018.75 1018.80 1018.67 1018.59 1018.93 1019.39 1019.98 1020.66 1021.50 1022.63 1023.49 1024.09 1024.45 1025.68 1026.83
1021.92 1021.32 1020.48 1019.72 1018.93 1018.02 1017.11 1016.17 1014.81 1013.14 1011.82 1011.56 1011.42 1011.63 1011.85 1011.89 1011.89 1011.60 1012.20 1013.04 1013.75 1014.99 1015.16 1015.08 1015.00 1015.50 1015.45 1016.00 1016.46 1016.97 1017.58 1018.23 1018.79 1019.47 1019.52 1019.84 1020.20 1020.70 1021.52 1022.30 1023.19 1024.75 1026.11 1026.83 1027.62 1028.71 1029.86
1022.33 1021.72 1020.94 1020.29 1019.50 1018.70 1017.88 1016.94 1015.77 1014.52 1013.07 1012.86 1013.36 1013.04 1012.21 1012.76 1012.42 1012.42 1013.35 1013.64 1014.37 1015.10 1016.25 1015.72 1015.86 1016.21 1017.03 1018.00 1018.08 1018.31 1018.61 1019.14 1019.62 1019.88 1020.30 1020.58 1021.09 1021.70 1022.39 1023.77 1024.97 1027.05 1029.11 1029.75 1030.61 1031.74 1032.80
1022.83 1022.15 1021.52 1020.81 1020.12 1019.32 1018.60 1017.81 1016.94 1016.11 1015.79 1015.27 1015.42 1014.54 1012.53 1013.18 1013.35 1013.89 1014.42 1014.59 1015.11 1015.48 1015.93 1016.82 1016.75 1016.95 1018.79 1018.77 1018.96 1019.32 1019.76 1020.34 1020.79 1021.22 1021.30 1021.39 1021.84 1022.60 1023.70 1025.02 1027.48 1030.53 1031.96 1032.86 1033.30 1034.33 1035.32
1023.27 1022.50 1021.95 1021.26 1020.65 1019.99 1019.30 1018.69 1017.97 1017.30 1016.66 1016.38 1016.19 1015.52 1013.92 1013.99 1014.64 1015.24 1015.59 1015.83 1016.10 1016.42 1016.98 1017.54 1018.25 1018.32 1018.83 1018.72 1018.84 1019.83 1020.51 1021.04 1022.41 1022.75 1022.66 1022.50 1022.66 1023.76 1024.73 1026.10 1029.39 1031.82 1033.66 1034.90 1035.40 1036.41 1037.41
1023.53 1023.04 1022.36 1021.79 1021.11 1020.50 1019.82 1019.28 1018.64 1018.05 1017.38 1016.78 1016.66 1016.48 1015.19 1014.82 1016.18 1016.27 1016.50 1016.58 1016.53 1016.99 1017.83 1018.75 1019.31 1019.34 1019.15 1018.70 1018.80 1019.36 1020.13 1021.21 1022.89 1023.86 1023.96 1023.87 1023.89 1024.14 1025.79 1027.40 1030.28 1033.04 1035.36 1036.69 1037.23 1037.85 1038.86
1023.73 1023.31 1022.77 1022.18 1021.41 1020.83 1020.19 1019.74 1019.19 1018.59 1017.96 1017.45 1017.08 1017.10 1015.91 1016.10 1017.83 1017.69 1017.37 1017.53 1017.66 1017.70 1018.06 1018.96 1019.38 1019.58 1019.48 1018.77 1019.03 1019.93 1021.02 1022.22 1023.25 1024.58 1025.58 1025.51 1025.89 1026.17 1027.00 1028.99 1032.51 1035.16 1036.86 1038.01 1039.02 1040.09 1040.03
1023.90 1023.44 1022.97 1022.44 1021.71 1021.10 1020.52 1019.95 1019.54 1018.97 1018.39 1017.97 1017.36 1017.39 1016.84 1017.21 1019.08 1019.14 1019.19 1018.93 1019.01 1018.54 1018.41 1019.43 1019.71 1019.71 1019.49 1019.33 1019.76 1020.85 1021.81 1023.85 1025.53 1027.70 1028.36 1028.45 1028.89 1029.06 1030.35 1031.78 1034.42 1036.66 1038.30 1039.38 1040.16 1040.72 1041.16
1023.95 1023.47 1022.99 1022.52 1022.00 1021.24 1020.67 1020.14 1019.69 1019.12 1018.65 1018.26 1017.78 1017.88 1017.82 1018.10 1020.30 1020.58 1020.84 1021.03 1020.97 1020.54 1019.82 1019.96 1019.66 1019.54 1019.93 1019.99 1020.84 1022.23 1023.87 1025.36 1026.94 1028.81 1030.58 1031.87 1032.80 1032.59 1033.80 1034.85 1036.56 1038.18 1039.21 1040.47 1041.22 1041.65 1041.82
Wind_Speed
15 15 16 16 16 16 15 15 15 15 15 15 15 14 13 12 11 10 8 7 6 8 9 9 7 8 6 7 7 6 2 16 17 16 17 15 14 14 12 13 8 12 7 6 7 5 3
15 15 15 16 16 17 16 16 16 16 16 16 15 14 14 13 12 11 10 7 5 7 9 9 8 8 8 10 3 3 12 17 14 17 16 15 10 12 9 6 11 3 12 8 6 8 4
16 16 16 16 17 16 17 17 17 16 16 17 16 15 15 15 14 13 12 8 4 6 8 8 9 9 7 3 2 7 13 10 14 12 14 11 3 10 4 5 3 4 7 11 11 9 6
16 17 17 18 18 17 17 17 17 17 17 17 17 16 16 15 15 14 13 9 5 6 7 6 8 8 6 3 2 9 8 10 9 5 5 5 4 10 6 4 5 6 7 10 10 8 8
17 17 17 18 19 19 19 18 18 18 18 17 17 17 16 15 15 14 13 3 7 8 7 8 7 9 3 3 7 10 9 12 12 6 4 6 5 6 5 9 7 9 8 11 8 6 7
18 18 19 20 20 19 20 19 19 19 19 18 18 17 16 14 13 13 11 2 9 13 7 7 4 6 6 5 7 8 5 14 9 11 7 7 6 7 10 11 6 12 12 6 8 8 7
17 19 19 19 20 20 20 20 20 20 20 19 18 17 15 13 11 10 3 6 6 5 8 6 3 2 7 7 8 8 10 10 9 12 8 11 9 12 14 15 11 6 4 7 8 7 10
18 18 19 19 20 21 21 21 21 21 21 20 19 17 15 13 9 6 8 6 4 5 5 12 1 2 2 4 6 10 11 10 10 12 10 6 15 15 6 9 12 10 10 10 5 5 3
20 22 22 21 20 22 21 22 21 22 21 20 19 17 15 11 7 4 12 9 4 4 5 6 7 5 4 7 3 14 12 5 12 14 14 11 3 3 9 9 11 13 13 11 6 5 8
21 20 21 22 22 21 22 22 23 23 22 21 19 16 13 9 3 5 7 12 4 2 6 10 8 6 6 5 4 3 7 5 5 13 10 11 4 6 8 12 13 12 11 12 7 8 9
20 21 22 22 23 22 22 24 24 25 24 22 19 15 10 8 4 5 4 4 4 4 6 9 6 5 6 6 12 4 1 4 8 8 6 4 7 10 11 12 9 5 0 8 10 13 13
20 20 22 23 23 24 24 25 25 26 25 21 16 12 7 4 4 2 2 3 3 6 7 6 6 9 11 7 3 6 6 2 3 5 6 1 2 4 0 3 5 9 8 7 5 6 9
20 21 21 22 24 25 26 26 26 26 24 19 14 8 4 2 1 2 3 3 6 8 4 8 8 11 12 9 6 8 12 10 7 7 11 10 8 3 2 5 3 8 10 5 6 6 8
20 22 23 24 25 26 27 28 29 28 24 18 9 4 2 2 4 3 4 5 10 1 5 2 6 12 8 9 3 6 10 8 2 4 3 12 6 9 2 4 4 14 13 6 7 10 7
21 21 23 25 26 27 28 29 30 28 23 17 7 3 1 3 3 2 6 10 5 4 3 9 9 12 6 6 4 6 8 6 3 3 5 6 6 5 6 2 3 8 8 3 6 7 5
23 23 23 25 27 28 29 30 31 29 21 15 3 2 3 4 1 3 5 3 2 4 4 4 8 4 12 12 9 10 11 2 4 4 4 3 4 1 3 2 4 3 3 4 6 6 11
21 24 25 26 27 28 30 31 32 30 21 11 4 3 4 2 2 4 7 4 3 4 4 4 2 3 3 6 6 7 5 4 5 3 4 3 4 6 4 7 6 2 4 3 4 3 5
24 24 25 27 28 29 30 32 33 30 21 4 3 3 4 2 2 2 3 3 1 1 5 3 3 6 4 3 4 4 5 6 5 3 2 3 3 3 5 6 7 4 5 4 4 5 1
23 23 25 27 29 30 32 33 34 30 15 4 2 2 2 3 4 4 4 4 4 1 5 3 3 4 3 4 5 6 6 4 6 4 3 2 1 4 5 4 2 4 4 3 2 1 4
23 25 26 28 29 31 32 33 34 33 16 4 3 3 3 2 3 5 7 5 5 4 4 5 3 2 5 4 6 7 6 4 5 7 7 2 3 4 3 6 3 4 4 5 3 1 3
24 25 25 27 29 31 32 33 34 35 17 4 4 3 4 3 3 5 4 5 6 4 3 2 4 5 2 5 5 6 6 6 6 4 4 3 3 3 6 5 5 4 4 5 2 4 3
23 25 25 27 28 30 32 33 33 36 22 4 3 1 3 4 3 6 0 3 7 6 4 2 6 5 4 5 4 7 8 3 4 4 3 2 3 3 2 4 2 4 4 4 4 3 3
22 23 25 26 28 29 30 31 32 34 21 5 3 0 4 3 2 2 2 5 7 8 6 8 11 13 15 12 13 13 13 9 6 4 4 3 4 3 3 3 2 4 4 3 3 6 5
23 23 24 26 27 28 29 30 31 31 21 5 4 5 3 3 5 4 5 10 9 4 7 7 5 6 5 14 15 14 15 14 10 8 5 6 5 1 4 4 4 5 4 4 4 3 3
22 24 25 25 26 27 27 28 28 27 26 6 5 5 3 4 7 8 8 11 13 14 13 11 7 8 12 4 6 7 4 3 8 7 5 4 3 3 3 6 5 2 3 3 4 3 3
22 23 24 25 25 26 26 27 27 27 25 7 6 5 4 5 4 5 8 7 8 6 6 5 6 5 6 3 3 4 3 5 6 5 3 4 3 1 3 3 3 5 5 3 1 3 4
21 21 23 23 24 24 24 25 26 26 23 10 4 9 3 4 4 2 2 3 2 2 5 6 6 4 3 3 3 2 4 3 5 5 3 3 2 2 4 3 4 4 4 3 3 4 4
19 20 21 22 23 23 24 23 24 24 22 11 4 8 4 4 6 6 6 2 3 2 4 7 5 2 3 3 3 3 3 4 5 4 3 2 1 3 1 3 4 6 5 4 4 3 1
18 21 22 24 23 23 24 21 22 22 20 13 3 5 7 6 5 8 13 12 7 6 2 2 3 4 3 3 2 4 4 2 4 4 2 2 4 3 4 4 6 3 3 5 4 2 4
Wind_Direction
10 8 4 358 356 352 353 351 348 346 342 341 339 339 335 332 332 334 326 305 252 221 215 206 195 170 188 215 255 32 171 163 169 188 186 185 189 204 214 203 181 224 220 215 228 201 250
8 3 2 357 354 350 348 348 345 343 341 337 336 336 333 332 336 337 336 320 254 212 206 206 185 172 247 242 33 90 132 151 166 185 188 191 203 209 242 217 206 186 230 229 214 224 185
1 1 358 356 350 349 346 345 343 341 340 335 334 334 334 335 336 339 337 318 233 199 193 212 181 199 243 270 31 138 141 157 160 187 186 205 273 195 203 195 197 204 242 219 222 214 185
1 359 357 351 348 347 345 345 343 340 338 336 333 333 334 335 335 338 338 319 181 176 181 199 184 221 265 57 154 163 152 146 158 156 198 178 248 229 260 86 176 216 229 222 134 165 147
358 354 353 350 346 345 343 343 341 338 336 336 332 332 332 332 334 337 339 50 145 157 176 161 179 234 228 134 174 167 170 159 158 129 127 144 194 212 190 215 202 200 246 208 144 183 143
357 355 356 351 346 343 341 342 339 336 334 333 331 329 328 329 331 331 330 225 133 133 164 184 275 219 189 186 141 159 168 153 153 142 130 177 195 219 215 209 203 206 223 191 166 150 136
357 352 350 352 342 341 340 341 338 334 331 330 328 325 323 323 323 319 258 144 170 164 209 206 198 290 134 108 142 173 153 156 157 183 183 188 203 214 219 224 257 319 213 190 134 139 166
351 349 358 354 345 343 343 339 337 334 330 329 325 321 317 314 311 292 272 236 354 8 203 218 283 209 134 179 130 159 184 173 176 192 195 171 226 228 239 238 238 237 238 230 164 164 187
5 353 351 353 351 344 342 337 336 334 330 327 322 316 311 307 291 242 218 224 331 295 259 162 204 203 166 200 136 168 189 182 196 200 199 219 85 296 195 207 218 229 235 225 236 154 217
359 354 350 348 345 344 338 340 337 334 330 326 319 310 303 299 227 190 208 228 235 279 251 153 191 175 160 194 119 109 204 202 194 209 209 238 170 152 192 221 217 236 220 245 213 203 229
0 356 356 352 343 344 343 341 337 335 331 324 316 306 293 246 334 205 51 154 181 221 255 122 139 112 154 183 123 145 177 206 190 170 189 178 183 202 219 225 222 261 175 217 218 222 258
0 358 358 352 346 348 347 342 339 335 331 323 313 302 289 191 228 351 305 164 186 218 233 143 134 165 155 166 102 123 174 99 25 165 231 57 63 215 19 97 224 131 132 129 177 216 237
4 1 357 353 351 350 348 343 339 338 333 327 313 290 237 265 61 356 185 183 193 236 136 161 168 172 169 157 123 178 174 173 204 190 212 200 208 131 218 173 165 201 179 179 205 204 242
3 358 360 355 353 352 348 345 343 342 339 336 322 253 144 31 309 210 202 202 233 238 132 89 156 159 171 155 128 155 163 166 121 260 241 193 200 181 133 252 222 202 213 227 225 219 218
5 1 360 358 355 353 351 347 345 343 341 340 317 165 148 7 309 218 220 213 343 48 37 151 155 172 155 164 166 156 194 152 75 350 263 208 138 122 58 342 301 152 221 317 282 260 284
6 3 3 1 357 356 353 350 347 344 341 335 263 227 44 354 241 214 230 237 47 21 327 283 189 240 181 171 171 191 172 48 123 32 312 74 163 38 80 240 81 310 13 187 213 243 236
6 6 5 2 360 356 356 353 351 346 339 329 255 241 36 92 207 206 222 75 108 41 320 320 137 126 70 147 216 175 147 71 7 36 13 326 275 119 191 24 13 216 207 243 297 291 270
9 7 3 5 2 359 358 356 354 348 340 277 280 232 31 234 112 358 133 67 6 29 24 31 49 55 103 122 112 122 128 38 354 335 67 37 356 124 53 91 45 40 19 332 260 226 290
12 11 8 7 4 2 0 359 356 355 351 320 259 79 67 261 200 133 126 91 55 60 35 38 84 38 65 105 118 113 96 31 21 48 48 3 135 145 167 190 148 54 39 44 87 22 232
9 13 10 8 6 6 3 0 357 359 348 295 260 191 103 78 356 150 147 140 121 51 70 56 95 108 126 94 51 128 116 51 33 70 35 5 63 26 41 60 48 119 81 42 22 222 1
14 13 11 9 7 7 7 3 357 1 350 289 356 71 348 135 90 133 116 138 139 121 77 32 92 65 105 120 109 113 108 127 59 26 50 42 90 78 83 57 63 76 42 20 353 49 270
16 10 11 12 10 8 9 7 3 4 348 70 356 331 82 87 56 133 94 124 138 120 348 76 108 83 76 84 26 143 129 128 85 80 72 13 110 106 89 52 70 94 44 47 60 79 117
15 13 9 11 10 9 10 10 9 13 4 33 17 209 289 25 108 252 36 123 128 132 55 80 120 101 87 82 79 78 74 73 93 105 102 110 130 160 119 105 107 222 37 24 83 60 350
11 11 8 11 9 8 9 10 13 14 19 0 11 293 288 84 58 61 107 110 107 71 120 110 88 88 100 122 101 86 83 76 79 71 28 142 124 58 126 146 232 81 53 27 21 87 78
10 10 8 7 7 7 6 6 9 9 14 17 2 325 345 99 106 108 112 107 100 89 91 85 61 88 147 157 121 130 125 134 62 56 60 110 150 117 188 204 110 171 53 23 20 96 96
9 8 6 3 4 4 1 4 4 4 4 354 32 329 313 134 76 111 124 131 127 108 105 92 82 117 169 204 143 167 154 109 141 116 62 100 55 270 163 241 274 60 99 86 353 219 126
5 5 5 359 0 359 359 2 358 359 358 351 9 1 297 100 65 302 102 153 106 90 94 129 144 153 246 189 142 151 127 350 140 131 128 122 64 211 200 252 124 114 119 147 240 69 123
3 2 1 356 355 356 354 358 355 355 353 354 1 10 345 72 54 18 16 72 116 197 156 129 152 191 177 173 177 131 106 73 92 55 58 357 240 115 128 218 223 152 142 238 81 156 315
1 359 0 358 350 352 350 356 348 350 350 350 345 27 28 58 78 88 76 50 22 360 82 127 50 91 44 117 90 110 113 110 156 129 67 183 360 49 359 50 102 82 35 111 86 80 338